Location: Grambois
(43.7619°N, 5.5873°E)
Time: 19:04:34
(UTC+00:00)

Cosmos 2333 Rocket - Pass Details

Date: 07 June 2020
Orbit: 838 x 863 km, 70.8° (Epoch: 10 July)

Event Time Altitude Azimuth Distance (km) Brightness Sun altitude
Exits shadow 02:37:37 - 182° (S) 2,715 4.4 -11.6°
Reaches altitude 10° 02:38:21 10° 180° (S) 2,447 4.2 -11.5°
Maximum altitude 02:43:41 47° 108° (ESE) 1,111 3.0 -10.8°
Drops below altitude 10° 02:49:05 10° 36° (NE) 2,475 6.2 -10.2°
Sets 02:51:37 0° 31° (NNE) 3,418 7.2 -9.8°
